Location: ???????
(55.2903°N, 39.1554°E)
Time: 20:58:31
(UTC+00:00)

Resurs 1-4 Rocket - Pass Details

Date: 14 April 2024
Orbit: 798 x 814 km, 98.7° (Epoch: 23 May)

Event Time Altitude Azimuth Distance (km) Brightness Sun altitude
Rises 01:34:33 0° 11° (N) 3,350 5.9 -7.0°
Reaches altitude 10° 01:37:32 10° 354° (N) 2,412 4.9 -6.6°
Maximum altitude 01:41:07 19° 312° (NW) 1,860 3.8 -6.1°
Drops below altitude 10° 01:44:42 10° 269° (W) 2,396 4.0 -5.7°
Enters shadow 01:46:01 - 260° (W) 2,778 4.3 -5.5°
